Regional Weather Roundup
Issued by NWS

Home | Current Version | Previous Version | Graphics & Text | Print | Product List | Glossary On
Versions: 1 2 3 4 5 6 7 8 9 10 11 12 13 14 15 16 17 18 19 20 21 22 23 24 25 26 27 28 29 30 31 32 33 34 35 36 37 38 39 40 41 42 43 44 45 46 47 48 49 50
000
ASUS43 KDTX 310610
RWRMI
MICHIGAN HOURLY REGIONAL WEATHER ROUNDUP
NATIONAL WEATHER SERVICE DETROIT/PONTIAC MI
200 AM EDT FRI OCT 31 2014

NOTE: "FAIR" INDICATES FEW OR NO CLOUDS BELOW 12,000 FEET WITH NO
SIGNIFICANT WEATHER AND/OR OBSTRUCTION TO VISIBILITY.

MIZ047>049-052>055-059>063-066>070-074>076-081>083-310700-
SOUTHEAST LOWER MICHIGAN

CITY           SKY/WX    TMP DP  RH WIND       PRES   REMARKS
ADRIAN         CLOUDY    43  36  76 W5        30.00F
6HR MIN TEMP:  43; 6HR MAX TEMP:  46;

ALMA           CLOUDY    43  38  84 S6        29.94F
ANN ARBOR      CLOUDY    44  34  67 SW7       29.98F
BAD AXE        CLOUDY    43  40  90 SW6       29.94F
6HR MIN TEMP:  43; 6HR MAX TEMP:  43;

CARO           CLOUDY    41  38  90 CALM      29.94F
DETROIT CITY   CLOUDY    48  36  63 SW7       29.98F
6HR MIN TEMP:  48; 6HR MAX TEMP:  50;

DETROIT        CLOUDY    45  36  70 S8        29.99F
6HR MIN TEMP:  45; 6HR MAX TEMP:  47;

FLINT          CLOUDY    46  37  71 SW5       29.97F
6HR MIN TEMP:  46; 6HR MAX TEMP:  48;

GROSSE ILE     CLOUDY    46  37  71 SW3       29.98F
HILLSDALE      CLOUDY    44  38  78 SW3       29.98F
6HR MIN TEMP:  44; 6HR MAX TEMP:  45;

HOWELL         CLOUDY    43  37  78 SW3       29.96F
6HR MIN TEMP:  43; 6HR MAX TEMP:  45;


CITY           SKY/WX    TMP DP  RH WIND       PRES   REMARKS
JACKSON        CLOUDY    44  36  73 SW6       29.97F
6HR MIN TEMP:  44; 6HR MAX TEMP:  45;

LAMBERTVILLE   CLOUDY    46  34  61 SW3       30.00F
LANSING        CLOUDY    43  36  76 SW7       29.97F
6HR MIN TEMP:  41; 6HR MAX TEMP:  46;

LAPEER         CLOUDY    44  37  77 SW6       29.96F
MASON          CLOUDY    43  37  78 CALM      29.96F
MONROE         CLOUDY    45  37  76 SW6       29.98F
MT. CLEMENS    CLOUDY    46  38  72 SW8       29.95F
6HR MIN TEMP:  46; 6HR MAX TEMP:  47;

PONTIAC        CLOUDY    45  35  68 SW7       29.95F
6HR MIN TEMP:  45; 6HR MAX TEMP:  46; 6HR PCP: TRACE;

PORT HOPE        N/A     44  39  82 SW5       29.91F
6HR MIN TEMP:  43; 6HR MAX TEMP:  44; 6HR PCP:  0.03;

PORT HURON     CLOUDY    43  39  87 S3        29.97F
TRI CITIES     CLOUDY    44  38  79 SW6       29.95F
6HR MIN TEMP:  43; 6HR MAX TEMP:  47; 6HR PCP: TRACE;

TROY           CLOUDY    47  35  63 SW5       29.99F
SAGINAW HB     CLOUDY    43  37  81 SW6       29.94F
$$
MIZ043>046-050>051-056>058-064>065-071>073-077>080-310700-
SOUTHWEST LOWER MICHIGAN

CITY           SKY/WX    TMP DP  RH WIND       PRES   REMARKS
BATTLE CREEK   CLOUDY    45  36  70 SW6       29.97F
6HR MIN TEMP:  44; 6HR MAX TEMP:  47;

BENTON HARBOR  CLOUDY    49  37  63 W9        29.99F
6HR MIN TEMP:  45; 6HR MAX TEMP:  49;

BIG RAPIDS     LGT RAIN  42  42  99 CALM      29.92F
6HR MIN TEMP:  42; 6HR MAX TEMP:  44; 6HR PCP:  0.01;

COLDWATER      CLOUDY    45  37  76 SW5       29.98F
6HR MIN TEMP:  45; 6HR MAX TEMP:  47;

FREMONT        RAIN      44  40  84 NW7       29.94S
HOLLAND        CLOUDY    50  39  66 W9        29.97F
6HR MIN TEMP:  48; 6HR MAX TEMP:  50;

GRAND RAPIDS   CLOUDY    45  39  79 SW7       29.95F
6HR MIN TEMP:  45; 6HR MAX TEMP:  47;

IONIA          CLOUDY    44  38  79 SW7       29.94F
KALAMAZOO      CLOUDY    46  36  68 SW7       29.98F
6HR MIN TEMP:  45; 6HR MAX TEMP:  47;

LUDINGTON      LGT RAIN  42  36  77 NW9       29.95S
6HR MIN TEMP:  42; 6HR MAX TEMP:  49;

MARSHALL       CLOUDY    43  36  74 SW3       29.97F
MOUNT PLEASANT CLOUDY    43  37  79 SW5       29.93F
6HR MIN TEMP:  42; 6HR MAX TEMP:  46;

MUSKEGON       LGT RAIN  48  38  68 NW13      29.95F
6HR MIN TEMP:  47; 6HR MAX TEMP:  50; 6HR PCP:  0.01;

SOUTH HAVEN    CLOUDY    51  39  63 W6        29.98F
$$
MIZ016>042-310700-
NORTHERN LOWER MICHIGAN

CITY           SKY/WX    TMP DP  RH WIND       PRES   REMARKS
ALPENA         LGT RAIN  41  40  96 SW5       29.89F
6HR MIN TEMP:  41; 6HR MAX TEMP:  42; 6HR PCP:  0.01;

BEAVER ISLAND  LGT RAIN  41  38  91 N7        29.91F
6HR MIN TEMP:  41; 6HR MAX TEMP:  43;

BELLAIRE       MIX PCPN  41  39  93 CALM      29.92S
6HR MIN TEMP:  41; 6HR MAX TEMP:  46;

CADILLAC       RAIN      39  37  91 W8        29.91S WCI  34
CHARLEVOIX     LGT RAIN  42  38  89 NW12      29.93F
6HR MIN TEMP:  41; 6HR MAX TEMP:  43;

FRANKFORT      DRIZZLE   41  38  89 NW8G17    29.94S
GAYLORD        LGT RAIN  38  37  97 CALM      29.89F
6HR MIN TEMP:  38; 6HR MAX TEMP:  40; 6HR PCP:  0.03;

GRAYLING       LGT RAIN  39  39  97 W3        29.90F
6HR MIN TEMP:  39; 6HR MAX TEMP:  42;

HARBOR SPRINGS RAIN      40  38  93 CALM      29.90F
HOUGHTON LAKE  CLOUDY    41  37  86 W7        29.91F
6HR MIN TEMP:  41; 6HR MAX TEMP:  43; 6HR PCP: TRACE;

MANISTEE       CLOUDY    43  34  70 N10G22    29.95S
OSCODA         DRIZZLE   41  41  99 SW5       29.91F
PELLSTON       LGT RAIN  40  39  97 W3        29.90F
6HR MIN TEMP:  40; 6HR MAX TEMP:  43; 6HR PCP:  0.11;

TRAVERSE CITY  LGT RAIN  42  39  89 W3        29.91F
6HR MIN TEMP:  42; 6HR MAX TEMP:  46; 6HR PCP:  0.01;

$$
MIZ007>008-015-310700-
EASTERN UPPER MICHIGAN

CITY           SKY/WX    TMP DP  RH WIND       PRES   REMARKS
KINROSS        CLOUDY    36  36 100 N13G18    29.91R WCI  27
6HR MIN TEMP:  36; 6HR MAX TEMP:  39; 6HR PCP:  0.12;

MACKINAC ISLAN LGT RAIN  39  38  97 N8        29.89S WCI  33
6HR MIN TEMP:  39; 6HR MAX TEMP:  42;

NEWBERRY       LGT RAIN  35  34  96 N12G18    29.94R WCI  27
S. S. MARIE    LGT RAIN  36  32  85 N10       29.92R WCI  28
6HR MIN TEMP:  36; 6HR MAX TEMP:  41; 6HR PCP:  0.13;

MUNISING         N/A     41  37  86 N29G40    29.98R
6HR MIN TEMP:  37; 6HR MAX TEMP:  43; 6HR PCP:  0.28;

$$
MIZ004>006-011>014-085-310700-
CENTRAL UPPER MICHIGAN

CITY           SKY/WX    TMP DP  RH WIND       PRES   REMARKS
MANISTIQUE     DRIZZLE   37  36  96 N7        29.94S WCI  31
ESCANABA       CLOUDY    36  30  80 N13G20    29.98R WCI  27
6HR MIN TEMP:  36; 6HR MAX TEMP:  43;

MENOMINEE      CLOUDY    39  30  70 NW12G17   29.99R WCI  32
6HR MIN TEMP:  39; 6HR MAX TEMP:  45;

SAWYER-GWINN   CLOUDY    32  30  93 N26G35    30.02R WCI  18
$$
MIZ001>003-009>011-084-310700-
WESTERN UPPER MICHIGAN

CITY           SKY/WX    TMP DP  RH WIND       PRES   REMARKS
IRON MOUNTAIN  LGT SNOW  34  30  85 N20G25    30.03R FOG     WCI  23
6HR MIN TEMP:  34; 6HR MAX TEMP:  41; 6HR PCP: TRACE;

HOUGHTON       LGT SNOW  31  27  85 N17G32    30.16R FOG     WCI  19
6HR MIN TEMP:  31; 6HR MAX TEMP:  36; 6HR PCP:  0.16;

COPPER HARBOR    N/A     37  27  67 E32G45    30.16R WCI  24
6HR MIN TEMP:  36; 6HR MAX TEMP:  40; 6HR PCP:  0.15;

IRONWOOD       CLOUDY    30  27  86 N14G23    30.22R WCI  20
6HR MIN TEMP:  30; 6HR MAX TEMP:  36;

$$

ABBREVIATIONS USED IN REMARKS
   TC - TEMPERATURE IN CELSIUS
  WCI - WIND CHILL INDEX
   HX - HEAT INDEX
  VSB - VISIBILITY




USA.gov is the U.S. government's official web portal to all federal, state and local government web resources and services.